#timestamp,LO_Frequency,Hit,StdDev 
1595311215.2,286047001.1,N
1595311235.0,286046998.2,N
1595311235.9,286046998.2,N
1595311255.8,286046998.1,N
1595311275.6,286047000.9,N
1595311295.4,286047000.2,N
1595311315.3,286046999.8,N
1595311335.1,286047002.4,N
1595311355.8,286047002.0,N
1595311375.7,286047002.8,N
1595311395.5,286047004.3,N
1595311415.4,286047001.3,N
1595311435.2,286047004.4,N
1595311455.0,286047004.0,N
1595311455.9,286047004.0,N
1595311475.8,286047004.2,N
1595311495.6,286047004.2,N
1595311515.4,286047003.2,N
1595311535.3,286047003.1,N
1595311555.1,286047003.1,N
1595311575.9,286047004.1,N
1595311595.7,286047003.7,N
1595311615.5,286047004.4,N
1595311635.4,286047003.8,N
1595311655.2,286047005.6,N
1595311675.0,286047004.1,N
1595311675.9,286047004.1,N
1595311695.8,286047003.8,N
1595311715.6,286047004.1,N
1595311735.5,286047003.7,N
1595311755.3,286047003.2,N
1595311775.1,286047003.2,N
1595311795.9,286047003.5,N
1595311815.7,286047003.5,N
1595311835.5,286047003.1,N
1595311855.4,286047003.8,Y
1595311875.2,286047000.7,P
1595311895.1,286047000.8,N
1595311896.0,286047000.8,N
1595311915.8,286047000.7,N
1595311935.6,286047000.2,N
1595311955.5,286046998.1,N
1595311975.3,286046998.6,N
1595311995.1,286046998.6,N
1595312015.9,286046998.7,N
1595312035.7,286046999.3,N
1595312055.6,286047001.1,N
1595312075.4,286047001.2,N
1595312095.2,286046999.6,N
1595312115.1,286046999.6,N
1595312116.0,286046999.6,N
1595312135.8,286046998.4,N
1595312155.6,286046998.7,N
1595312175.5,286046997.4,N
1595312195.3,286046995.1,Y
1595312215.2,286046997.0,P
1595312235.9,286046996.6,N
1595312255.7,286046999.0,N
1595312275.6,286046998.3,N
1595312295.4,286047000.7,N
1595312315.2,286047000.7,N
1595312335.1,286047001.0,N
1595312336.0,286047001.0,N
1595312355.8,286047000.8,N
1595312375.7,286046998.6,N
1595312395.5,286046998.5,N
1595312415.3,286047001.2,N
1595312435.2,286047001.0,N
1595312455.0,286047000.7,N
1595312455.9,286047000.7,N
1595312475.8,286047000.9,N
1595312495.6,286047000.6,N
1595312515.4,286047000.9,N
1595312535.3,286047000.3,N
1595312555.1,286046999.7,N
1595312575.8,286047002.1,N
1595312595.7,286046999.7,N
1595312615.5,286047000.2,N
1595312635.4,286046999.8,N
1595312655.2,286047002.2,N
1595312675.0,286047002.8,N
1595312675.9,286047002.8,N
1595312695.8,286047002.8,N
1595312715.6,286047002.5,N
1595312735.4,286047002.1,N
1595312755.3,286047001.5,N
1595312775.1,286047001.6,N
1595312795.9,286047002.5,N
1595312815.7,286047001.6,N
1595312835.5,286047004.2,Y
1595312855.4,286047002.3,P
1595312875.2,286047002.3,P
1595312895.1,286047002.8,P
1595312896.0,286047002.8,Y
1595312915.8,286046998.1,P
1595312935.6,286046998.1,N
1595312955.5,286047002.5,N
1595312975.3,286047000.0,N
1595312995.2,286046999.7,N
1595313015.9,286047000.6,N
1595313035.7,286047000.0,N
1595313055.6,286047000.1,N
1595313075.4,286047002.7,N
1595313095.2,286047002.6,N
1595313115.1,286047001.7,N
1595313116.0,286047001.7,N
1595313135.8,286047003.9,N
1595313155.7,286047003.5,N
1595313175.5,286047002.6,N
1595313195.3,286047001.7,N
1595313215.2,286047001.6,N
1595313235.0,286047001.7,N
1595313235.9,286047001.7,N
1595313255.7,286047001.4,N
1595313275.6,286047002.5,N
1595313295.4,286047004.4,N
1595313315.3,286047001.4,N
1595313335.1,286047002.5,N
1595313336.0,286047002.5,N
1595313355.8,286047002.3,N
1595313375.7,286047004.3,N
1595313395.5,286047003.8,N
1595313415.3,286047004.0,N
1595313435.2,286047002.5,N
1595313455.0,286047004.3,N
1595313455.9,286047004.3,N
1595313475.8,286047001.8,N
1595313495.6,286047001.6,N
1595313515.4,286047001.5,N
1595313535.3,286047002.2,N
1595313555.1,286047002.8,N
1595313575.9,286047000.4,N
1595313595.7,286047001.0,N
1595313615.5,286047001.0,N
1595313635.4,286047000.4,N
1595313655.2,286047001.2,N
1595313675.0,286047000.8,N
1595313675.9,286047000.8,N
1595313695.8,286046998.8,N
1595313715.6,286047001.0,N
1595313735.4,286047000.8,N
1595313755.3,286047000.3,N
1595313775.1,286046999.7,N
1595313795.9,286047002.2,N
1595313815.7,286047001.9,N
1595313835.5,286047001.7,N
1595313855.4,286047002.2,N
1595313875.2,286047002.0,N
1595313895.0,286047002.7,N
1595313895.9,286047002.7,N
1595313915.8,286047001.2,N
1595313935.6,286047001.0,N
1595313955.5,286047001.0,N
1595313975.3,286047001.2,N
1595313995.1,286047000.4,N
1595314015.9,286047000.3,N
1595314035.7,286046999.8,N
1595314055.5,286047000.1,N
1595314075.4,286047000.0,N
1595314095.2,286047000.4,N
1595314115.1,286047001.1,N
1595314116.0,286047001.1,N
1595314135.8,286046998.9,N
1595314155.6,286046996.9,Y
1595314175.5,286046995.0,P
1595314195.3,286046997.6,N
1595314215.1,286046997.6,N
1595314235.9,286046994.9,N
1595314255.7,286046998.0,N
1595314275.6,286046995.3,N
1595314295.4,286046995.1,N
1595314315.2,286046997.5,N
1595314335.1,286046999.2,N
1595314336.0,286046999.2,N
1595314355.8,286046999.3,N
1595314375.7,286046998.7,N
1595314395.5,286046998.9,N
1595314415.3,286046997.1,N
1595314435.2,286046997.5,N
1595314455.9,286046997.6,N
1595314475.7,286046995.2,N
1595314495.6,286046995.6,N
1595314515.4,286046997.8,N
1595314535.2,286046997.4,N
1595314555.1,286046998.0,N
1595314556.0,286046998.0,N
1595314575.8,286046998.0,N
1595314595.7,286046997.8,N
1595314615.5,286046998.0,N
1595314635.3,286046995.6,N
1595314655.2,286046995.9,N
1595314675.0,286046997.8,N
1595314675.9,286046997.8,N
1595314695.7,286046999.6,N
1595314715.6,286046996.5,N
1595314735.4,286046996.5,N
1595314755.3,286046999.4,N
1595314775.1,286046998.4,N
1595314776.0,286046998.4,N
1595314795.8,286046998.6,N
